[[{"header":{"parameterUnit":"m.s-1","parameterCategory":1,"la1":30.2991,"la2":30.254,"lo1":-89.0895,"lo2":-89.0444,"dy":0.0017,"dx":0.0017,"nx":28,"ny":28,"refTime":"2026-01-03T03:00:00:Z","depth":0,"parameterNumber":2,"parameterNumberName":"U-component_of_WINDS"},"data":[0,0,0,0,0,0,0,0,0,0,0,0,0,0,0,0,0,0,0,0,0,0,0,0,0,0,0,0,0,0,0,0,0,0,0,0,0,0,0,0,0,0,0,0,0,0,0,0,0,0,0,0,0,0,0,0,0,0,-1.3121,-1.3122,0,-1.3203,-1.3204,-1.3205,-1.3198,-1.3197,-1.3196,-1.3195,-1.3282,-1.3285,-1.3288,0,0,0,0,0,0,0,0,0,0,0,0,0,-1.296,-1.2963,-1.3121,-1.3122,-1.3123,-1.3203,-1.3204,-1.3205,-1.3199,-1.3197,-1.3195,-1.3194,-1.328,-1.3284,-1.3289,0,0,0,0,0,0,0,0,0,0,0,0,0,-1.3035,-1.2964,-1.3121,-1.3129,-1.3131,-1.3203,-1.3204,-1.3206,-1.3199,-1.3197,-1.3195,-1.3193,-1.3279,-1.3284,-1.3289,-1.3359,0,0,-1.3305,-1.3307,0,0,0,0,0,0,0,0,-1.3031,-1.3041,-1.3127,-1.3129,-1.3131,-1.3188,-1.3179,-1.3257,-1.3199,-1.3173,-1.3195,-1.3192,-1.3252,-1.326,-1.3279,-1.3363,-1.3367,-1.3306,-1.3309,-1.3311,-1.3313,0,0,0,0,0,0,0,-1.3026,-1.3038,-1.3154,-1.3128,-1.3131,-1.313,-1.3138,-1.3194,-1.3222,-1.3175,-1.3175,-1.3185,-1.3253,-1.3274,-1.3281,-1.3368,-1.3305,-1.331,-1.3313,-1.3315,-1.3513,-1.3515,0,0,0,0,0,0,-1.3018,-1.3033,-1.3151,-1.3156,-1.3075,-1.3134,-1.3144,-1.3172,-1.3222,-1.3227,-1.3186,-1.3184,-1.3266,-1.3275,-1.3284,-1.3369,-1.3311,-1.3316,-1.3319,-1.3511,-1.3514,-1.3516,0,0,0,0,0,0,-1.3015,-1.3029,-1.3148,-1.3095,-1.311,-1.3139,-1.3171,-1.3174,-1.3196,-1.323,-1.3235,-1.3203,-1.3265,-1.3277,-1.334,-1.3372,-1.3318,-1.3323,-1.3509,-1.3512,-1.3515,-1.354,0,0,0,0,0,0,-1.301,-1.3028,-1.3054,-1.3095,-1.3112,-1.3202,-1.3173,-1.3177,-1.3204,-1.3202,-1.3247,-1.3252,-1.3264,-1.3332,-1.3345,-1.3379,-1.3327,-1.3506,-1.351,-1.3514,-1.3537,-1.3544,-1.355,0,0,0,0,0,-1.3005,-1.3059,-1.3055,-1.307,-1.3146,-1.3204,-1.3214,-1.3226,-1.3207,-1.3234,-1.3256,-1.3251,-1.3366,-1.3339,-1.3354,-1.3389,-1.3504,-1.3509,-1.3514,-1.3534,-1.3543,-1.355,0,0,0,0,0,0,-1.3022,-1.3064,-1.3061,-1.313,-1.3163,-1.3202,-1.3237,-1.3235,-1.3275,-1.3272,-1.3286,-1.3296,-1.336,-1.338,-1.3349,-1.3459,-1.3433,-1.3441,-1.3443,-1.3452,-1.3458,-1.3453,-1.3331,0,0,0,0,0,-1.3033,-1.3076,-1.3111,-1.3168,-1.3185,-1.3208,-1.3234,-1.324,-1.3275,-1.329,-1.3316,-1.3351,-1.3396,-1.3425,-1.3467,-1.3539,-1.3549,-1.3571,-1.3577,-1.3583,-1.359,-1.363,-1.364,-1.3532,-1.3532,-1.3532,0,0,-1.3058,-1.3086,-1.3113,-1.3172,-1.3199,-1.3243,-1.322,-1.3268,-1.3301,-1.3297,-1.3359,-1.3379,-1.342,-1.3487,-1.3519,-1.3507,-1.3621,-1.3589,-1.3593,-1.3597,-1.3635,-1.3646,-1.3655,-1.3535,-1.3534,-1.3534,0,0,-1.3126,-1.3151,-1.3202,-1.3229,-1.3269,-1.3283,-1.3295,-1.3335,-1.3348,-1.341,-1.3408,-1.3448,-1.3524,-1.3552,-1.3577,-1.3655,-1.3652,-1.3668,-1.3704,-1.3742,-1.3751,-1.3758,-1.3787,-1.3797,-1.3675,-1.3675,-1.3675,0,-1.3152,-1.3218,-1.3229,-1.3277,-1.3303,-1.33,-1.3352,-1.3378,-1.343,-1.3449,-1.3434,-1.3529,-1.3556,-1.363,-1.3649,-1.3669,-1.3684,-1.3664,-1.3749,-1.3756,-1.3764,-1.3791,-1.3802,-1.3677,-1.3676,-1.3676,-1.3676,0,-1.3249,-1.3295,-1.3331,-1.338,-1.3411,-1.346,-1.3479,-1.3508,-1.3512,-1.3528,-1.3591,-1.3623,-1.3672,-1.369,-1.3694,-1.3766,-1.3757,-1.3745,-1.372,-1.3776,-1.3801,-1.3812,-1.3679,-1.3679,-1.3678,-1.3678,0,0,-1.3331,-1.3385,-1.3398,-1.342,-1.3463,-1.35,-1.3549,-1.3596,-1.3622,-1.3657,-1.37,-1.3764,-1.3753,-1.3781,-1.3788,-1.3822,-1.3882,-1.3806,-1.3807,-1.382,-1.3963,-1.3972,-1.3984,-1.388,-1.3882,-1.3883,-1.396,0,-1.3404,-1.3492,-1.3502,-1.358,-1.3623,-1.362,-1.3663,-1.3695,-1.3711,-1.375,-1.3769,-1.3814,-1.3796,-1.3813,-1.3846,-1.3868,-1.3911,-1.3862,-1.3921,-1.3922,-1.3912,-1.3998,-1.4008,-1.4079,-1.397,-1.3972,-1.3973,0,-1.3502,-1.3539,-1.3621,-1.3658,-1.3676,-1.3715,-1.3759,-1.3796,-1.3832,-1.3841,-1.3872,-1.3875,-1.3927,-1.3898,-1.397,-1.3936,-1.396,-1.3975,-1.3978,-1.3985,-1.3952,-1.4008,-1.4102,-1.4113,-1.3989,-1.3988,-1.3987,0,-1.3555,-1.3625,-1.3684,-1.3703,-1.3747,-1.3775,-1.3794,-1.3828,-1.3856,-1.3894,-1.3912,-1.3956,-1.3981,-1.4015,-1.403,-1.4007,-1.4101,-1.4073,-1.4112,-1.4111,-1.4133,-1.4131,-1.4233,-1.4146,-1.4146,-1.4146,-1.4146,0,-1.3636,-1.3686,-1.3708,-1.3744,-1.38,-1.3812,-1.3868,-1.3886,-1.3916,-1.3957,-1.3957,-1.3994,-1.4011,-1.4052,-1.4063,-1.4122,-1.4133,-1.4142,-1.4145,-1.4143,-1.4142,-1.416,-1.4156,-1.4149,-1.4148,-1.4148,-1.4147,0,-1.3705,-1.3721,-1.3785,-1.3821,-1.3831,-1.3872,-1.3903,-1.3938,-1.3954,-1.4005,-1.4017,-1.4042,-1.409,-1.4107,-1.4166,-1.4173,-1.4241,-1.4239,-1.4229,-1.423,-1.4267,-1.4264,-1.4385,-1.4402,-1.4303,-1.4304,-1.4305,0,-1.3756,-1.3795,-1.3835,-1.3861,-1.3882,-1.3925,-1.3952,-1.3964,-1.3993,-1.4037,-1.4067,-1.4114,-1.4152,-1.4229,-1.4252,-1.4297,-1.4297,-1.4336,-1.4304,-1.43,-1.4299,-1.4297,-1.4301,-1.4343,-1.4344,-1.4345,-1.4345,0,-1.3846,-1.3852,-1.3891,-1.3934,-1.3966,-1.4,-1.4033,-1.4055,-1.4072,-1.4105,-1.4153,-1.4183,-1.4242,-1.4289,-1.4334,-1.4356,-1.4354,-1.4355,-1.4366,-1.4365,-1.4358,-1.4363,-1.4247,-1.4352,-1.4352,-1.4351,-1.4351,-1.4351,-1.3909,-1.3943,-1.3976,-1.402,-1.4046,-1.4077,-1.4111,-1.4131,-1.4171,-1.4219,-1.4224,-1.4276,-1.431,-1.4371,-1.4394,-1.4436,-1.4425,-1.4441,-1.4446,-1.445,-1.4453,-1.435,-1.4444,-1.4444,-1.4444,-1.4443,-1.4443,0,-1.3999,-1.402,-1.406,-1.4106,-1.414,-1.4134,-1.417,-1.42,-1.4245,-1.4277,-1.4314,-1.437,-1.4415,-1.4442,-1.4488,-1.4516,-1.4516,-1.4527,-1.4526,-1.4531,-1.4459,-1.4445,-1.4526,-1.4526,-1.4526,-1.4526,-1.4526,-1.4526,-1.405,-1.4108,-1.4117,-1.4188,-1.4209,-1.4259,-1.428,-1.4309,-1.4334,-1.4396,-1.4433,-1.445,-1.448,-1.4527,-1.4569,-1.4576,-1.4593,-1.4606,-1.4612,-1.4545,-1.4536,-1.4528,-1.4515,-1.4609,-1.4609,-1.468,-1.4681,-1.4681]},{"header":{"parameterUnit":"m.s-1","parameterCategory":1,"la1":30.2991,"la2":30.254,"lo1":-89.0895,"lo2":-89.0444,"dy":0.0017,"dx":0.0017,"nx":28,"ny":28,"refTime":"2026-01-03T03:00:00:Z","depth":0,"parameterNumber":3,"parameterNumberName":"V-component_of_WINDS"},"data":[0,0,0,0,0,0,0,0,0,0,0,0,0,0,0,0,0,0,0,0,0,0,0,0,0,0,0,0,0,0,0,0,0,0,0,0,0,0,0,0,0,0,0,0,0,0,0,0,0,0,0,0,0,0,0,0,0,0,-4.4469,-4.447,0,-4.4525,-4.4525,-4.4526,-4.4461,-4.4458,-4.4456,-4.4454,-4.4507,-4.4511,-4.4515,0,0,0,0,0,0,0,0,0,0,0,0,0,-4.4306,-4.4309,-4.4469,-4.447,-4.4471,-4.4524,-4.4525,-4.4526,-4.4461,-4.4458,-4.4455,-4.4453,-4.4506,-4.4511,-4.4515,0,0,0,0,0,0,0,0,0,0,0,0,0,-4.4371,-4.431,-4.4469,-4.4445,-4.4443,-4.4524,-4.4525,-4.4526,-4.4462,-4.4458,-4.4455,-4.4451,-4.4505,-4.451,-4.4516,-4.4622,0,0,-4.4532,-4.4535,0,0,0,0,0,0,0,0,-4.4367,-4.4377,-4.4448,-4.4447,-4.4445,-4.4482,-4.4487,-4.4558,-4.4463,-4.4455,-4.4454,-4.445,-4.4502,-4.4507,-4.4525,-4.4625,-4.4627,-4.4533,-4.4536,-4.4539,-4.454,0,0,0,0,0,0,0,-4.4363,-4.4374,-4.4491,-4.4449,-4.4447,-4.4431,-4.4436,-4.45,-4.4498,-4.4455,-4.4451,-4.4458,-4.45,-4.452,-4.4526,-4.4628,-4.4533,-4.4538,-4.4541,-4.4543,-4.4818,-4.4822,0,0,0,0,0,0,-4.4361,-4.4371,-4.4489,-4.4493,-4.4396,-4.4437,-4.4442,-4.4474,-4.4497,-4.4497,-4.4461,-4.4455,-4.4513,-4.452,-4.4528,-4.4655,-4.4539,-4.4544,-4.4547,-4.4814,-4.4819,-4.4823,0,0,0,0,0,0,-4.4358,-4.4372,-4.4487,-4.4431,-4.4444,-4.4443,-4.4479,-4.4477,-4.4497,-4.4502,-4.4501,-4.4482,-4.451,-4.452,-4.46,-4.4656,-4.4546,-4.4551,-4.4809,-4.4815,-4.4821,-4.491,0,0,0,0,0,0,-4.4354,-4.4372,-4.4413,-4.4432,-4.4447,-4.4559,-4.4483,-4.4481,-4.4507,-4.4499,-4.4521,-4.4521,-4.4508,-4.4592,-4.4605,-4.4662,-4.4556,-4.4804,-4.4812,-4.4819,-4.4902,-4.4918,-4.4932,0,0,0,0,0,-4.4348,-4.4435,-4.4415,-4.443,-4.4498,-4.4562,-4.4571,-4.4555,-4.4512,-4.4553,-4.4556,-4.4521,-4.4648,-4.46,-4.4615,-4.4674,-4.48,-4.481,-4.4818,-4.4895,-4.4915,-4.4932,0,0,0,0,0,0,-4.442,-4.4437,-4.4415,-4.4511,-4.4536,-4.4551,-4.4602,-4.4576,-4.4613,-4.4604,-4.4582,-4.4587,-4.4672,-4.468,-4.4628,-4.4779,-4.4717,-4.4729,-4.477,-4.4789,-4.4804,-4.48,-4.456,0,0,0,0,0,-4.4448,-4.4499,-4.451,-4.4593,-4.4607,-4.4603,-4.463,-4.4616,-4.464,-4.465,-4.4659,-4.4683,-4.4729,-4.4759,-4.4801,-4.4902,-4.4907,-4.495,-4.4965,-4.4978,-4.4989,-4.5044,-4.5064,-4.4852,-4.4852,-4.4852,0,0,-4.4504,-4.452,-4.4553,-4.4608,-4.4626,-4.4679,-4.4612,-4.4671,-4.471,-4.4659,-4.4735,-4.4742,-4.4768,-4.4859,-4.49,-4.4869,-4.5048,-4.4989,-4.4999,-4.5003,-4.5055,-4.5075,-4.5093,-4.4859,-4.4857,-4.4856,0,0,-4.4635,-4.4652,-4.4723,-4.4743,-4.4771,-4.4768,-4.4785,-4.4805,-4.4809,-4.4885,-4.4848,-4.4893,-4.4972,-4.4992,-4.5013,-4.5153,-4.5122,-4.5167,-4.5246,-4.53,-4.5317,-4.5331,-4.5382,-4.54,-4.5178,-4.5178,-4.5178,0,-4.4702,-4.4781,-4.4763,-4.4826,-4.4851,-4.4808,-4.4881,-4.49,-4.494,-4.4959,-4.4924,-4.5023,-4.5037,-4.5133,-4.5167,-4.5185,-4.5204,-4.5165,-4.5316,-4.533,-4.5344,-4.5392,-4.5411,-4.5183,-4.5183,-4.5182,-4.5182,0,-4.4862,-4.4918,-4.4973,-4.5014,-4.5046,-4.5113,-4.5105,-4.5138,-4.5122,-4.5122,-4.52,-4.5216,-4.5261,-4.5283,-4.5266,-4.5377,-4.5357,-4.5319,-4.5257,-4.537,-4.5415,-4.5433,-4.5191,-4.5189,-4.5187,-4.5186,0,0,-4.504,-4.5072,-4.5092,-4.5111,-4.514,-4.5182,-4.5247,-4.5292,-4.5322,-4.5351,-4.5406,-4.5474,-4.544,-4.5463,-4.5448,-4.5496,-4.5607,-4.5452,-4.5452,-4.5481,-4.5731,-4.576,-4.5781,-4.5586,-4.559,-4.5592,-4.5729,0,-4.5172,-4.5286,-4.5273,-4.5382,-4.5433,-4.5394,-4.545,-4.5474,-4.5476,-4.5519,-4.5521,-4.557,-4.5521,-4.5535,-4.558,-4.5584,-4.5657,-4.5573,-4.5636,-4.5639,-4.5632,-4.5805,-4.5835,-4.5963,-4.5746,-4.5749,-4.5751,0,-4.5341,-4.5379,-4.5493,-4.5515,-4.5536,-4.5588,-4.5629,-4.5671,-4.5696,-4.5694,-4.5722,-4.5699,-4.5763,-4.57,-4.5789,-4.5733,-4.5757,-4.5763,-4.5768,-4.5774,-4.5703,-4.5816,-4.6004,-4.6023,-4.5779,-4.5776,-4.5774,0,-4.5461,-4.5539,-4.5619,-4.5636,-4.5663,-4.57,-4.5713,-4.5735,-4.5763,-4.5799,-4.5817,-4.5859,-4.5882,-4.5915,-4.5904,-4.5858,-4.5996,-4.5931,-4.5996,-4.5997,-4.6028,-4.6026,-4.6223,-4.6042,-4.6042,-4.6042,-4.6041,0,-4.561,-4.5682,-4.5673,-4.5722,-4.5801,-4.5784,-4.5863,-4.5871,-4.5891,-4.594,-4.5908,-4.5954,-4.5937,-4.5982,-4.5974,-4.6049,-4.606,-4.606,-4.6057,-4.6064,-4.6064,-4.608,-4.6071,-4.6047,-4.6046,-4.6045,-4.6044,0,-4.5758,-4.5754,-4.5838,-4.5857,-4.5864,-4.5922,-4.5938,-4.5983,-4.5983,-4.6046,-4.606,-4.6059,-4.6111,-4.6104,-4.6161,-4.6155,-4.625,-4.6235,-4.6242,-4.6239,-4.6306,-4.63,-4.6521,-4.6549,-4.6349,-4.6351,-4.6353,0,-4.5854,-4.5909,-4.5934,-4.5966,-4.5982,-4.6032,-4.6062,-4.6047,-4.6079,-4.6113,-4.6155,-4.6204,-4.6243,-4.6328,-4.6332,-4.6376,-4.6363,-4.6437,-4.6369,-4.6374,-4.6365,-4.6363,-4.6368,-4.6451,-4.6453,-4.6455,-4.6456,0,-4.6025,-4.6021,-4.6065,-4.611,-4.6146,-4.618,-4.621,-4.6238,-4.6226,-4.6263,-4.6317,-4.6347,-4.6406,-4.6456,-4.6497,-4.6509,-4.6482,-4.6478,-4.6495,-4.6503,-4.6505,-4.6506,-4.628,-4.6473,-4.6471,-4.647,-4.6469,-4.6468,-4.615,-4.6198,-4.6224,-4.6275,-4.6296,-4.6326,-4.637,-4.6376,-4.6421,-4.6469,-4.6457,-4.6518,-4.6543,-4.6596,-4.6613,-4.6659,-4.6632,-4.6657,-4.6664,-4.6671,-4.6679,-4.6497,-4.6667,-4.6666,-4.6666,-4.6665,-4.6665,0,-4.6321,-4.6336,-4.6383,-4.6428,-4.6468,-4.6439,-4.6471,-4.6506,-4.6561,-4.6587,-4.6626,-4.6688,-4.6736,-4.6745,-4.679,-4.6826,-4.6815,-4.6839,-4.6837,-4.684,-4.6701,-4.6681,-4.6848,-4.6848,-4.6848,-4.6848,-4.6848,-4.6848,-4.6415,-4.6494,-4.6493,-4.6583,-4.6597,-4.6657,-4.6678,-4.6705,-4.6726,-4.6797,-4.6838,-4.6843,-4.6863,-4.691,-4.6952,-4.6954,-4.6972,-4.7002,-4.6998,-4.6868,-4.685,-4.6832,-4.6814,-4.7006,-4.7006,-4.7134,-4.7135,-4.7136]}]]